Charlottesville, VA

3:28 PM EST on February 26, 2017 (GMT -0500)
Charlottesville-Albemarle

Weather History for KCHO - February, 2012

Change the Weather History Date:

Wednesday, February 1, 2012

  Actual Average Record
Temperature  
Mean Temperature 60 °F 36 °F  
Max Temperature 71 °F 46 °F 74 °F (2002)
Min Temperature 49 °F 26 °F 4 °F (1900)
Degree Days  
Heating Degree Days 5 29  
Month to date heating degree days 5 29  
Since 1 July heating degree days 2155 2689  
Cooling Degree Days 0 0  
Month to date cooling degree days 0 0  
Year to date cooling degree days 0 0  
Growing Degree Days 8 (Base 50)    
Moisture  
Dew Point 39 °F    
Average Humidity 50    
Maximum Humidity 67    
Minimum Humidity 32    
Precipitation  
Precipitation 0.02 in 0.08 in 0.90 in (2008)
Month to date precipitation 0.02 0.08  
Year to date precipitation 2.21 2.85  
Sea Level Pressure  
Sea Level Pressure 30.04 in    
Wind  
Wind Speed 7 mph (SSW)    
Max Wind Speed 15 mph    
Max Gust Speed 25 mph    
Visibility 10 miles    
Events Rain    
T = Trace of Precipitation, MM = Missing Value Source: NWS Daily Summary

Daily Weather History Graph

Daily Weather History Graph

Search for Another Location

Airport or City:

Trip Planner

Search our weather history database for the weather conditions in past years. The results will help you decide how hot, cold, wet, or windy it might be!

Date:

Astronomy

Feb. 01, 2012 Rise Set
Actual Time 7:18 AM EST 5:36 PM EST
Civil Twilight 6:51 AM EST 6:04 PM EST
Nautical Twilight 6:19 AM EST 6:35 PM EST
Astronomical Twilight 5:48 AM EST 7:06 PM EST
Moon 12:04 PM EST (2/1) 2:01 AM EST (2/1)
Length of Visible Light 11h 12m
Length of Day
10h 17m
Waxing Gibbous, 64% of the Moon is Illuminated
Feb 1
Waxing Gibbous
Feb 7
Full
Feb 14
Last Quarter
Feb 21
New
Feb 29
First Quarter

Hourly Weather History & Observations

Time (EST) Temp. Dew Point Humidity Pressure Visibility Wind Dir Wind Speed Gust Speed Precip Events Conditions
12:53 AM 55.9 °F 30.9 °F 39% 30.09 in 10.0 mi SSW 4.6 mph - N/A   Clear
1:53 AM 52.0 °F 30.9 °F 45% 30.09 in 10.0 mi South 6.9 mph - N/A   Clear
2:53 AM 51.1 °F 30.9 °F 46% 30.08 in 10.0 mi SSW 5.8 mph - N/A   Clear
3:53 AM 51.1 °F 30.9 °F 46% 30.07 in 10.0 mi South 8.1 mph - N/A   Partly Cloudy
4:53 AM 51.1 °F 30.9 °F 46% 30.07 in 10.0 mi South 9.2 mph - N/A   Clear
5:53 AM 51.1 °F 30.0 °F 44% 30.06 in 10.0 mi SSE 6.9 mph - N/A   Clear
6:53 AM 51.1 °F 30.0 °F 44% 30.07 in 10.0 mi South 11.5 mph - N/A   Clear
7:53 AM 48.9 °F 30.0 °F 48% 30.08 in 10.0 mi South 9.2 mph - N/A   Clear
8:53 AM 51.1 °F 30.0 °F 44% 30.09 in 10.0 mi SSW 11.5 mph - N/A   Partly Cloudy
9:53 AM 57.9 °F 32.0 °F 37% 30.08 in 10.0 mi SSW 11.5 mph - N/A   Clear
10:37 AM 64.4 °F 33.8 °F 32% 30.07 in 10.0 mi SSW 11.5 mph 20.7 mph N/A   Partly Cloudy
10:53 AM 66.0 °F 35.1 °F 32% 30.06 in 10.0 mi SSW 11.5 mph 20.7 mph N/A   Partly Cloudy
11:41 AM 69.8 °F 42.8 °F 38% 30.05 in 10.0 mi SSW 13.8 mph 20.7 mph N/A   Partly Cloudy
11:53 AM 69.1 °F 43.0 °F 39% 30.04 in 10.0 mi SSW 13.8 mph 20.7 mph N/A   Clear
12:41 PM 69.8 °F 44.6 °F 40% 30.03 in 10.0 mi SW 13.8 mph 23.0 mph N/A   Partly Cloudy
12:53 PM 68.0 °F 44.1 °F 42% 30.02 in 10.0 mi SW 13.8 mph 23.0 mph N/A   Scattered Clouds
1:53 PM 68.0 °F 44.1 °F 42% 30.00 in 10.0 mi WSW 13.8 mph 25.3 mph N/A   Mostly Cloudy
2:53 PM 68.0 °F 45.0 °F 43% 30.00 in 10.0 mi Calm Calm - N/A   Mostly Cloudy
3:53 PM 68.0 °F 45.0 °F 43% 30.01 in 10.0 mi West 11.5 mph 23.0 mph N/A   Clear
4:53 PM 64.9 °F 45.0 °F 48% 30.02 in 10.0 mi Variable 3.5 mph - N/A   Clear
5:53 PM 64.0 °F 45.0 °F 50% 30.03 in 10.0 mi Calm Calm - N/A   Clear
6:53 PM 62.1 °F 45.0 °F 53% 30.04 in 10.0 mi Calm Calm - N/A   Clear
7:53 PM 62.1 °F 45.0 °F 53% 30.03 in 10.0 mi WNW 3.5 mph - N/A   Clear
8:53 PM 61.0 °F 45.0 °F 56% 30.02 in 10.0 mi Variable 3.5 mph - N/A   Overcast
9:53 PM 59.0 °F 46.0 °F 62% 30.01 in 10.0 mi South 3.5 mph - N/A   Overcast
10:53 PM 57.9 °F 46.9 °F 67% 30.01 in 10.0 mi South 5.8 mph - 0.00 in   Overcast
11:53 PM 55.9 °F 51.1 °F 84% 29.99 in 8.0 mi South 5.8 mph - 0.01 in Rain Light Rain